www.pogodaiklimat.ru

Погода и климат >> Архив погоды >> Россия >> Свердловская область >> Ивдель


ПОГОДА в Ивдель

  • Прогноз погоды в Ивдель
  • Монитор погоды в Ивдель
  • Климат города

АРХИВ ПОГОДЫ в Ивдель

Время (UTC), дата Ветер
(напр.,м/с)
 
Видим.   Явления Облачность Т
(С)
Тd
(С)
f
(%)
Тe
(С)
Тes
(С)
Комфортность P
(гПа)
Po
(гПа)
Тmin
(С)
Tmax
(С)
R
(мм)
R24
(мм)
S
(см)
18 18.05 СЗ 1 20 км 6/0
[Ci fib]
+0.8 -5.8 61 -1 -1 1021.7 1009.8
21 18.05 штиль 0 10 км 8/3 1000 м
[Sc Ac trans Ci fib]
-1.7 -4.9 79 -3 -3 1022.1 1010.1
00 19.05 штиль 0 50 км 9/5 1000 м
[Sc Ac trans Ci fib]
-2.3 -4.7 84 -3 -3 1021.0 1009.0
03 19.05 ЮВ 3 50 км 6/0
[Ac trans]
+6.4 -6.9 38 +4 +6 1018.1 1006.5 -2.4
06 19.05 Ю 4 50 км 9/4 1000 м
[Sc Ac trans]
+9.6 -6.4 32 +8 +10 1016.1 1004.6
09 19.05 Ю 5
{11}
50 км 10/8 1000 м
[Sc Ac trans]
+12.4 -3.7 32 +11 +11 1014.0 1002.7
12 19.05 ЮВ 5
{12}
40 км 10/6 1000 м
[Sc Ac trans]
+12.1 -0.7 41 +10 +11 1012.2 1000.9
15 19.05 ЮВ 4
{11}
25 км слабый ливневой дождь 10/10 600 м
[Cb cap]
+9.7 +2.7 62 +7 +7 1010.6 999.2 +14.1 0.0
18 19.05 Ю 3 20 км {ливн. осадки} 10/10 600 м
[Cb cap]
+6.0 +3.9 86 +3 +3 1008.9 997.4
21 19.05 Ю 1 10 км слабый ливневой дождь 10/10 600 м
[Cb cap]
+5.3 +4.1 92 +4 +4 1006.0 994.5
00 20.05 Ю 2 8000 м слабый ливневой дождь 10/10 570 м
[Cb cap]
+5.3 +4.3 93 +3 +3 1003.0 991.5
03 20.05 штиль 0 800 м туман {ливн. осадки} 10/10 210 м
[St]
+6.9 +5.9 93 +6 +6 1001.5 990.1 +5.2 4
06 20.05 ЮЗ 1 30 км {ливн. осадки, туман} 8/6 600 м
[Cb cap Ac trans]
+19.0 +12.6 66 +21 +25 комфорт 1000.4 989.5
09 20.05 ЮЗ 5-10
{13}
35 км в посл. час гроза {ливн. осадки} 8/5 600 м
[Cb cap Ac trans Ci fib]
+18.6 +11.9 65 +19 +21 1000.7 989.8
12 20.05 З 3
{12}
30 км слабый ливневой дождь {гроза} 9/9 600 м
[Cb cap]
+15.9 +8.7 62 +15 +16 1002.6 991.6
15 20.05 С 3 50 км 8/8 1000 м
[Sc]
+13.7 +4.3 53 +13 +13 1005.5 994.3 +20.3 1
18 20.05 СЗ 2
{11}
20 км 9/9 600 м
[Cb cap]
+7.1 +1.2 66 +5 +5 1010.3 998.8
21 20.05 СЗ 2
{10}
10 км 8/8 1000 м
[Sc]
+5.2 -0.5 67 +3 +3 1013.5 1001.9
00 21.05 СЗ 2 50 км 10/10 900 м
[Cb cap]
+4.4 -2.0 63 +2 +2 1016.4 1004.7
03 21.05 СЗ 3 50 км 10/10 900 м
[Cb cap]
+4.8 -2.3 60 +2 +2 1019.0 1007.3 +4.2
06 21.05 З 3
{11}
50 км 9/9 1000 м
[Sc]
+8.0 -2.2 48 +6 +7 1020.2 1008.6
09 21.05 З 2 50 км 3/1 600 м
[Cu hum Ci fib]
+12.3 -3.1 34 +12 +23 опасность
простуды
1020.4 1009.0
12 21.05 СЗ 4 50 км 3/0
[Ci fib]
+16.3 -4.1 24 +16 +20 1020.0 1008.7
15 21.05 З 3 50 км 3/0
[Ci fib]
+14.8 -1.9 32 +14 +15 1020.5 1009.2 +16.3
18 21.05 штиль 0 20 км 9/4 1000 м
[Sc Ac trans Ci fib]
+5.9 +0.2 67 +5 +5 1020.4 1008.7
21 21.05 штиль 0 10 км 10/10 600 м
[Cb cap]
+5.0 0.0 70 +4 +4 1018.8 1007.1
00 22.05 З 3
{12}
50 км 9/9 600 м
[Cb cap]
+11.4 +1.2 49 +10 +10 1015.7 1004.3
03 22.05 З 3
{10}
50 км 9/9 600 м
[Cb cap]
+13.7 +0.4 40 +13 +13 1011.8 1000.5 +3.2
06 22.05 СЗ 7-17
{17}
50 км {ливн. осадки} 9/9 600 м
[Cb cap]
+14.5 +3.3 47 +13 +13 1012.9 1001.6
09 22.05 СЗ 8-16
{19}
50 км 5/4 600 м
[Cu hum Ci fib]
+15.6 -6.7 21 +14 +15 1016.0 1004.7
12 22.05 С 7-15
{19}
50 км 5/4 600 м
[Cu hum Ci fib]
+15.7 -9.1 17 +14 +15 1019.0 1007.7
15 22.05 С 4-11
{15}
50 км 1/1 600 м
[Cu hum]
+14.0 -7.2 22 +13 +14 1021.8 1010.4 +16.2 0.0
18 22.05 СЗ 3
{11}
50 км ясно +10.0 -5.7 33 +9 +9 1024.5 1012.9
21 22.05 СЗ 2 н/о н/о +5.8 -4.4 48 +4 +4 1025.9 1014.2
00 23.05 СВ 1 50 км ясно +1.7 -3.8 67 0 +1 1026.8 1014.9
03 23.05 З 2 50 км 1/0
[Ci fib]
+10.7 -5.0 33 +10 +14 1026.7 1015.1 +0.9
06 23.05 ЮЗ 2 50 км 9/0
[Ac trans]
+15.6 -7.7 19 +16 +21 1024.0 1012.7
09 23.05 Ю 4 50 км 9/3 1000 м
[Sc Ac trans Cs]
+19.6 -9.4 13 +19 +23 1020.5 1009.3
12 23.05 Ю 3 50 км в посл. час ливневой дождь 10/10 600 м
[Cb cap]
+18.9 -8.4 15 +19 +19 1016.8 1005.7
15 23.05 ЮВ 2 50 км в посл. час ливневой дождь 10/10 600 м
[Cb cap]
+16.1 -2.0 29 +16 +16 1013.2 1002.0 +20.0 0.0
18 23.05 СЗ 1 50 км {ливн. осадки} 5/4 1000 м
[Sc Ac trans]
+9.3 +0.8 55 +9 +9 1010.5 999.0
21 23.05 СЗ 1 20 км 6/4 1000 м
[Sc Ac trans]
+6.8 +1.7 70 +6 +6 1007.1 995.6
00 24.05 ЮЗ 2 50 км {ливн. осадки} 8/4 600 м
[Cb cap Ac trans Ci fib]
+15.3 +8.4 63 +15 +15 1005.6 994.5
03 24.05 З 2 45 км сильный ливневой дождь 10/10 600 м
[Cb cap]
+14.3 +9.6 73 +14 +14 1005.7 994.5 +6.2 0.0
06 24.05 С 3
{10}
28 км слабый ливневой дождь 10/10 1080 м
[Cb cap]
+10.7 +7.8 82 +9 +9 1008.3 996.9
09 24.05 СЗ 4 50 км {ливн. осадки} 5/3 600 м
[Cu Sc Ci fib]
+13.5 -1.1 36 +12 +18 1010.5 999.2
12 24.05 СЗ 6-10
{11}
50 км {ливн. осадки} 8/3 600 м
[Cu hum Ac trans Ci fib]
+12.8 -3.5 32 +11 +12 1013.0 1001.7
15 24.05 СЗ 6
{12}
50 км 8/3 1000 м
[Sc Ci fib]
+9.7 -5.9 33 +7 +7 1015.3 1003.9 +15.0 2
18 24.05 З 2
{10}
50 км 6/3 1000 м
[Sc Ci fib]
+5.3 -5.5 46 +3 +3 1016.6 1004.9
21 24.05 С 1 20 км 8/3 1000 м
[Sc Ci fib]
+2.9 -4.7 57 +2 +2 1016.6 1004.8
00 25.05 СЗ 1 50 км 8/3 1000 м
[Sc Ci fib]
+0.5 -4.5 69 -1 -1 1016.9 1005.0
03 25.05 З 2 50 км 9/9 1000 м
[Sc]
+5.5 -3.0 54 +4 +4 1016.8 1005.1 +0.2
06 25.05 СЗ 3 50 км 9/9 1000 м
[Sc]
+6.8 -7.0 37 +5 +6 1016.4 1004.8
09 25.05 СЗ 4
{10}
50 км {ливн. осадки} 8/8 600 м
[Cb cap]
+10.3 -9.4 24 +8 +10 1015.8 1004.3
12 25.05 С 3 50 км {ливн. осадки} 9/9 600 м
[Cb cap]
+8.0 -8.0 31 +6 +7 1017.9 1006.3

 

Местоположение метеостанции Ивдель (Свердловская область, Россия): широта 60.68 долгота 60.45 высота над уровнем моря 94 м.

В архиве по умолчанию представлена погода в Ивдель за последнюю неделю. Архивные данные за месяц целиком и за предыдущие месяцы, начиная с января 2011 года, Вы можете получить, выбрав интересующий диапазон дат из раскрывающегося списка и нажав кнопку "Ввод!".


*Определитесь, кто Вы:
робот инопланетянин человек

Внимание! Время в таблицах - всемирное. Для получения местного времени необходимо прибавить поправку, которая в Ивдель равна 5 ч.

Смотрите также архив погоды в соседних городах и на ближайших метеорологических станциях:

Погода в Североуральске (Свердловская область, Россия) (56 км)
Погода в Бурмантово (Свердловская область, Россия) (67 км)
Погода в Атымье (Свердловская область, Россия) (103 км)
Погода в Карпинске (Свердловская область, Россия) (106 км)
Погода в Серове (Свердловская область, Россия) (120 км)
Погода в Кытлыме (Свердловская область, Россия) (148 км)
Погода в Югорске (Ханты-Мансийский АО, Россия) (172 км)
Погода в Гари (Свердловская область, Россия) (174 км)
Погода в Агирише (Ханты-Мансийский АО, Россия) (195 км)
Погода в Няксимволе (Ханты-Мансийский АО, Россия) (196 км)

Пояснения к столбцам:

Ветер - указаны скорость ветра в м/с - средняя за 10 мин, порывы в срок и между сроками (в фигурных скобках) и направление, откуда дует ветер: С - северный, СВ - северо-восточный, В - восточный, ЮВ - юго-восточный, Ю - южный, ЮЗ - юго-западный, З - западный, СЗ - северо-западный.
Видимость - горизонтальная дальность видимости в метрах или километрах. При видимости от 1 до 10 км при отсутствии осадков обычно наблюдается дымка, при ухудшении видимости до 1 км и менее - туман. В сухую погоду видимость может ухудшаться дымом, пылью или мглою.
Явления - указаны атмосферные явления, наблюдавшиеся в срок или в последний час перед сроком; фигурными скобками обозначены явления, наблюдавшиеся между сроками (за 1-3 часа до срока); квадратными скобками обозначены град или гололедные отложения с указанием их диаметра в мм.
Облачность - указаны через наклонную черту общая и нижняя облачность в баллах и высота нижней границы облаков в метрах; квадратными скобками обозначены формы облаков: Ci - перистые, Cs - перисто-слоистые, Cc - перисто-кучевые, Ac - высококучевые, As - высокослоистые, Sc - слоисто-кучевые, Ns - слоисто-дождевые, Cu - кучевые, Cb - кучево-дождевые. Подробнее классификацию облаков см. в Атласе облаков (PDF).
T - Температура воздуха - температура, измеренная на высоте 2 м над землей.
Td - Температура точки росы - температура, при понижении до которой содержащийся в воздухе водяной пар достигнет насыщения.
f - Относительная влажность воздуха - влажноcть воздуха, измеренная на высоте 2 м над землей.
Te - Эффективная температура - температура, которую ощущает одетый по сезону человек в тени. Характеристика душности погоды. При расчете учитывается влияние влажности воздуха и скорости ветра на теплоощущения человека.
Tes - Эффективная температура на солнце - температура, которую ощущает человек, с поправкой на солнечный нагрев. Характеристика знойности погоды. Зависит от высоты солнца над горизонтом, облачности и скорости ветра. Ночью, в пасмурную погоду, а также при ветре 12 м/с и более поправка равна нулю.
P - Атмосферное давление - приведенное к уровню моря атмосферное давление.
Po - Атмосферное давление - измеренное на уровне метеостанции атмосферное давление.
Tmin - Минимальная температура - минимум температуры воздуха на высоте 2 м над землей.
Tmax - Максимальная температура - максимум температуры воздуха на высоте 2 м над землей.
R - Количество осадков - Количество выпавших осадков за период времени, мм. При наведении курсора мыши на число - период времени, за который выпало указанное количество осадков.
R24 - Количество осадков - Количество выпавших осадков за 24 часа, мм.
S - Снежный покров - Высота снежного покрова, см. При наведении курсора мыши на число - состояние снежного покрова и степень покрытия местности в баллах.